RBO52 KDFW-KMCO

Flight info

Callsign RBO52
Flight time 2h 1m
Altitude 37000
Route FORCK3 FORCK HAWES WINAP ORRKK ARNNY DEEDA GRNCH5
Aircraft B738/M-SDE2E3FGHIRWXY/LB1

Departure

Time 2026-05-05 00:17
Airport Dallas Fort Worth International Airport (KDFW)

Arrival

Time 2026-05-05 02:18
Airport Orlando International Airport (KMCO)
Time Latitude Longitude Altitude Speed Heading
2026-05-04 23:09 32.88756 -97.03687 569 ft 0 kts 329°
2026-05-05 00:01 32.88744 -97.03679 569 ft 2 kts 329°
2026-05-05 00:01 32.88731 -97.03669 569 ft 2 kts 329°
2026-05-05 00:02 32.88718 -97.03660 569 ft 2 kts 328°
2026-05-05 00:02 32.88704 -97.03651 569 ft 2 kts 329°
2026-05-05 00:02 32.88699 -97.03647 569 ft 0 kts 329°
2026-05-05 00:06 32.88700 -97.03647 569 ft 0 kts 329°
2026-05-05 00:06 32.88712 -97.03653 569 ft 2 kts 359°
2026-05-05 00:06 32.88725 -97.03640 569 ft 3 kts 71°
2026-05-05 00:07 32.88691 -97.03574 571 ft 11 kts 140°
2026-05-05 00:07 32.88641 -97.03523 572 ft 9 kts 133°
2026-05-05 00:07 32.88604 -97.03416 572 ft 14 kts 88°
2026-05-05 00:07 32.88645 -97.03333 572 ft 13 kts 22°
2026-05-05 00:08 32.88755 -97.03322 572 ft 15 kts 360°
2026-05-05 00:08 32.88850 -97.03322 572 ft 13 kts
2026-05-05 00:08 32.88979 -97.03321 572 ft 22 kts
2026-05-05 00:08 32.89119 -97.03320 574 ft 17 kts
2026-05-05 00:09 32.89228 -97.03320 575 ft 14 kts 360°
2026-05-05 00:09 32.89310 -97.03320 575 ft 4 kts
2026-05-05 00:09 32.89359 -97.03320 575 ft 15 kts
2026-05-05 00:09 32.89479 -97.03318 575 ft 18 kts
2026-05-05 00:10 32.89628 -97.03318 578 ft 23 kts
2026-05-05 00:10 32.89788 -97.03317 578 ft 21 kts
2026-05-05 00:10 32.89928 -97.03316 580 ft 18 kts
2026-05-05 00:10 32.90046 -97.03316 581 ft 15 kts
2026-05-05 00:11 32.90164 -97.03316 581 ft 22 kts
2026-05-05 00:11 32.90311 -97.03315 584 ft 18 kts
2026-05-05 00:11 32.90438 -97.03315 584 ft 18 kts
2026-05-05 00:11 32.90562 -97.03313 585 ft 18 kts
2026-05-05 00:12 32.90686 -97.03313 587 ft 20 kts 360°
2026-05-05 00:12 32.90834 -97.03313 584 ft 18 kts 360°
2026-05-05 00:12 32.90949 -97.03313 584 ft 14 kts
2026-05-05 00:12 32.91040 -97.03281 582 ft 13 kts 13°
2026-05-05 00:13 32.91153 -97.03275 581 ft 21 kts
2026-05-05 00:13 32.91307 -97.03275 578 ft 21 kts 360°
2026-05-05 00:13 32.91444 -97.03271 575 ft 18 kts 17°
2026-05-05 00:13 32.91488 -97.03185 573 ft 3 kts 91°
2026-05-05 00:14 32.91488 -97.03179 573 ft 0 kts 92°
2026-05-05 00:14 32.91486 -97.03149 572 ft 7 kts 93°
2026-05-05 00:14 32.91485 -97.03090 571 ft 6 kts 91°
2026-05-05 00:15 32.91471 -97.03007 570 ft 14 kts 129°
2026-05-05 00:15 32.91414 -97.02990 570 ft 0 kts 182°
2026-05-05 00:16 32.91383 -97.02991 571 ft 22 kts 181°
2026-05-05 00:16 32.90937 -97.02992 573 ft 104 kts 180°
2026-05-05 00:16 32.89965 -97.02998 615 ft 169 kts 180°
2026-05-05 00:17 32.88787 -97.02999 1525 ft 174 kts 181°
2026-05-05 00:17 32.87560 -97.02998 2375 ft 186 kts 181°
2026-05-05 00:17 32.86227 -97.02987 3056 ft 201 kts 182°
2026-05-05 00:17 32.84802 -97.02979 3785 ft 215 kts 183°
2026-05-05 00:18 32.83241 -97.02992 4377 ft 235 kts 184°
2026-05-05 00:18 32.81574 -97.03020 5106 ft 249 kts 185°
2026-05-05 00:18 32.79763 -97.03038 5759 ft 266 kts 185°
2026-05-05 00:18 32.77904 -97.03049 6681 ft 271 kts 185°
2026-05-05 00:19 32.76010 -97.03041 7583 ft 276 kts 185°
2026-05-05 00:19 32.74071 -97.02837 8412 ft 288 kts 173°
2026-05-05 00:19 32.72208 -97.01921 9258 ft 303 kts 151°
2026-05-05 00:19 32.70662 -97.00133 10060 ft 318 kts 129°
2026-05-05 00:20 32.69603 -96.97774 10628 ft 337 kts 112°
2026-05-05 00:20 32.68919 -96.95049 11164 ft 353 kts 103°
2026-05-05 00:20 32.68735 -96.92095 11655 ft 368 kts 86°
2026-05-05 00:20 32.68936 -96.89043 12148 ft 382 kts 82°
2026-05-05 00:21 32.69225 -96.85828 12602 ft 397 kts 82°
2026-05-05 00:21 32.69518 -96.82539 13195 ft 407 kts 82°
2026-05-05 00:21 32.69966 -96.79211 13895 ft 411 kts 75°
2026-05-05 00:21 32.70603 -96.75926 14567 ft 416 kts 73°
2026-05-05 00:22 32.71316 -96.72586 15266 ft 422 kts 72°
2026-05-05 00:22 32.72059 -96.69197 15999 ft 426 kts 72°
2026-05-05 00:22 32.72802 -96.65816 16682 ft 430 kts 71°
2026-05-05 00:22 32.73558 -96.62354 17351 ft 435 kts 71°
2026-05-05 00:23 32.74309 -96.58882 17992 ft 440 kts 71°
2026-05-05 00:23 32.75069 -96.55345 18533 ft 447 kts 71°
2026-05-05 00:23 32.75845 -96.51714 19117 ft 453 kts 71°
2026-05-05 00:23 32.76609 -96.48116 19708 ft 458 kts 71°
2026-05-05 00:24 32.77390 -96.44433 20292 ft 463 kts 71°
2026-05-05 00:24 32.78176 -96.40713 20861 ft 468 kts 71°
2026-05-05 00:24 32.78973 -96.36938 21298 ft 476 kts 71°
2026-05-05 00:24 32.79742 -96.33152 21829 ft 481 kts 73°
2026-05-05 00:25 32.80360 -96.29207 22298 ft 489 kts 76°
2026-05-05 00:25 32.80835 -96.25204 22828 ft 494 kts 78°
2026-05-05 00:25 32.81244 -96.21111 23300 ft 500 kts 79°
2026-05-05 00:25 32.81623 -96.17014 23791 ft 504 kts 79°
2026-05-05 00:26 32.81998 -96.12890 24186 ft 509 kts 79°
2026-05-05 00:26 32.82382 -96.08704 24644 ft 513 kts 78°
2026-05-05 00:26 32.82780 -96.04474 25132 ft 516 kts 78°
2026-05-05 00:26 32.83188 -96.00243 25468 ft 522 kts 78°
2026-05-05 00:27 32.83609 -95.95943 25988 ft 524 kts 78°
2026-05-05 00:27 32.84036 -95.91651 26279 ft 530 kts 78°
2026-05-05 00:27 32.84475 -95.87272 26708 ft 534 kts 77°
2026-05-05 00:27 32.84912 -95.82911 27194 ft 535 kts 77°
2026-05-05 00:28 32.85352 -95.78535 27620 ft 538 kts 77°
2026-05-05 00:28 32.85789 -95.74168 28225 ft 536 kts 76°
2026-05-05 00:28 32.86226 -95.69785 28735 ft 536 kts 77°
2026-05-05 00:28 32.86669 -95.65335 29245 ft 536 kts 76°
2026-05-05 00:29 32.87100 -95.60992 29765 ft 536 kts 76°
2026-05-05 00:29 32.87539 -95.56562 30255 ft 536 kts 76°
2026-05-05 00:29 32.87968 -95.52219 30694 ft 537 kts 76°
2026-05-05 00:29 32.88405 -95.47802 31040 ft 541 kts 76°
2026-05-05 00:30 32.88840 -95.43378 31480 ft 541 kts 75°
2026-05-05 00:30 32.89272 -95.38937 32034 ft 539 kts 75°
2026-05-05 00:30 32.89697 -95.34534 32534 ft 537 kts 76°
2026-05-05 00:30 32.90128 -95.30093 32767 ft 541 kts 76°
2026-05-05 00:31 32.90557 -95.25682 33069 ft 543 kts 76°
2026-05-05 00:31 32.90986 -95.21220 33544 ft 541 kts 75°
2026-05-05 00:31 32.91407 -95.16763 34182 ft 536 kts 75°
2026-05-05 00:31 32.91816 -95.12414 34726 ft 533 kts 76°
2026-05-05 00:32 32.92234 -95.07998 35041 ft 535 kts 76°
2026-05-05 00:32 32.92652 -95.03600 35333 ft 537 kts 75°
2026-05-05 00:32 32.93066 -94.99222 35784 ft 535 kts 75°
2026-05-05 00:32 32.93475 -94.94851 36354 ft 530 kts 75°
2026-05-05 00:33 32.93882 -94.90498 36595 ft 532 kts 75°
2026-05-05 00:33 32.94294 -94.86119 36836 ft 534 kts 75°
2026-05-05 00:33 32.94705 -94.81726 36851 ft 535 kts 75°
2026-05-05 00:34 32.95512 -94.72986 36852 ft 532 kts 75°
2026-05-05 00:34 32.96315 -94.64241 36847 ft 534 kts 75°
2026-05-05 00:35 32.97113 -94.55492 36846 ft 533 kts 75°
2026-05-05 00:35 32.97907 -94.46701 36846 ft 534 kts 75°
2026-05-05 00:36 32.98689 -94.37955 36856 ft 531 kts 75°
2026-05-05 00:36 32.99466 -94.29192 36864 ft 537 kts 76°
2026-05-05 00:37 32.99806 -94.20314 36868 ft 541 kts 83°
2026-05-05 00:37 32.99616 -94.11320 36859 ft 547 kts 85°
2026-05-05 00:38 32.99314 -94.02293 36852 ft 545 kts 86°
2026-05-05 00:38 32.99038 -93.93316 36850 ft 546 kts 85°
2026-05-05 00:39 32.98800 -93.84346 36853 ft 543 kts 85°
2026-05-05 00:39 32.98588 -93.75356 36855 ft 543 kts 84°
2026-05-05 00:40 32.98385 -93.66377 36860 ft 544 kts 84°
2026-05-05 00:40 32.98175 -93.57361 36866 ft 543 kts 84°
2026-05-05 00:41 32.97960 -93.48475 36870 ft 542 kts 84°
2026-05-05 00:41 32.97735 -93.39520 36873 ft 543 kts 84°
2026-05-05 00:42 32.97506 -93.30542 36867 ft 544 kts 85°
2026-05-05 00:42 32.97268 -93.21556 36868 ft 544 kts 85°
2026-05-05 00:43 32.97023 -93.12626 36865 ft 540 kts 84°
2026-05-05 00:43 32.96772 -93.03690 36867 ft 540 kts 84°
2026-05-05 00:44 32.96520 -92.94778 36871 ft 544 kts 84°
2026-05-05 00:44 32.96254 -92.85793 36874 ft 539 kts 84°
2026-05-05 00:45 32.95834 -92.76865 36877 ft 546 kts 88°
2026-05-05 00:45 32.95089 -92.67921 36885 ft 547 kts 89°
2026-05-05 00:46 32.94253 -92.58952 36886 ft 544 kts 89°
2026-05-05 00:46 32.93441 -92.50052 36888 ft 545 kts 88°
2026-05-05 00:47 32.92662 -92.41128 36891 ft 543 kts 88°
2026-05-05 00:47 32.91902 -92.32164 36884 ft 545 kts 89°
2026-05-05 00:48 32.91143 -92.23229 36886 ft 545 kts 89°
2026-05-05 00:48 32.90385 -92.14342 36888 ft 543 kts 88°
2026-05-05 00:49 32.89613 -92.05379 36891 ft 543 kts 89°
2026-05-05 00:49 32.88836 -91.96471 36896 ft 544 kts 88°
2026-05-05 00:50 32.88052 -91.87601 36902 ft 542 kts 89°
2026-05-05 00:50 32.87264 -91.78717 36908 ft 541 kts 88°
2026-05-05 00:51 32.86470 -91.69830 36905 ft 543 kts 89°
2026-05-05 00:51 32.85666 -91.60902 36905 ft 542 kts 88°
2026-05-05 00:52 32.84858 -91.52049 36911 ft 540 kts 88°
2026-05-05 00:52 32.84054 -91.43197 36913 ft 542 kts 88°
2026-05-05 00:53 32.83240 -91.34328 36911 ft 542 kts 89°
2026-05-05 00:53 32.82412 -91.25453 36919 ft 539 kts 89°
2026-05-05 00:54 32.81582 -91.16594 36914 ft 541 kts 89°
2026-05-05 00:54 32.80748 -91.07745 36913 ft 542 kts 88°
2026-05-05 00:55 32.79908 -90.98909 36911 ft 539 kts 89°
2026-05-05 00:55 32.79062 -90.90072 36916 ft 540 kts 89°
2026-05-05 00:56 32.78207 -90.81221 36921 ft 540 kts 89°
2026-05-05 00:56 32.77350 -90.72418 36927 ft 539 kts 89°
2026-05-05 00:57 32.76481 -90.63558 36930 ft 538 kts 88°
2026-05-05 00:57 32.75613 -90.54801 36935 ft 537 kts 89°
2026-05-05 00:58 32.74737 -90.45966 36937 ft 540 kts 88°
2026-05-05 00:58 32.73850 -90.37142 36944 ft 537 kts 88°
2026-05-05 00:59 32.72966 -90.28411 36950 ft 538 kts 89°
2026-05-05 00:59 32.72069 -90.19550 36951 ft 538 kts 89°
2026-05-05 01:00 32.71178 -90.10780 36955 ft 538 kts 89°
2026-05-05 01:00 32.70274 -90.01982 36953 ft 539 kts 89°
2026-05-05 01:01 32.69362 -89.93249 36961 ft 536 kts 89°
2026-05-05 01:01 32.68445 -89.84470 36960 ft 536 kts 89°
2026-05-05 01:02 32.67528 -89.75720 36962 ft 537 kts 88°
2026-05-05 01:02 32.66600 -89.66975 36964 ft 538 kts 89°
2026-05-05 01:03 32.65664 -89.58212 36964 ft 536 kts 89°
2026-05-05 01:03 32.64723 -89.49461 36966 ft 538 kts 88°
2026-05-05 01:04 32.63775 -89.40764 36970 ft 532 kts 89°
2026-05-05 01:04 32.62571 -89.27657 36973 ft 534 kts 85°
2026-05-05 01:05 32.62077 -89.18937 36973 ft 528 kts 84°
2026-05-05 01:05 32.61620 -89.10229 36968 ft 528 kts 84°
2026-05-05 01:06 32.61129 -89.01574 36974 ft 530 kts 85°
2026-05-05 01:06 32.60596 -88.92907 36977 ft 528 kts 85°
2026-05-05 01:07 32.60042 -88.84235 36985 ft 528 kts 85°
2026-05-05 01:07 32.59474 -88.75576 36986 ft 528 kts 85°
2026-05-05 01:08 32.58898 -88.66892 36986 ft 531 kts 85°
2026-05-05 01:08 32.58310 -88.58209 36986 ft 525 kts 84°
2026-05-05 01:09 32.57731 -88.49641 36985 ft 526 kts 85°
2026-05-05 01:09 32.57145 -88.41003 36980 ft 531 kts 85°
2026-05-05 01:10 32.56544 -88.32288 36979 ft 524 kts 85°
2026-05-05 01:10 32.55948 -88.23724 36974 ft 527 kts 85°
2026-05-05 01:11 32.55342 -88.15086 36978 ft 529 kts 85°
2026-05-05 01:11 32.54731 -88.06488 36978 ft 522 kts 85°
2026-05-05 01:12 32.54102 -87.97893 36979 ft 528 kts 87°
2026-05-05 01:12 32.52943 -87.89265 36984 ft 534 kts 94°
2026-05-05 01:13 32.51250 -87.80703 36986 ft 538 kts 96°
2026-05-05 01:13 32.49414 -87.72111 36979 ft 537 kts 96°
2026-05-05 01:14 32.47602 -87.63560 36982 ft 537 kts 96°
2026-05-05 01:14 32.45848 -87.55046 36986 ft 532 kts 95°
2026-05-05 01:15 32.44114 -87.46501 36988 ft 537 kts 96°
2026-05-05 01:15 32.42392 -87.37991 36990 ft 533 kts 96°
2026-05-05 01:16 32.40656 -87.29465 36989 ft 532 kts 97°
2026-05-05 01:16 32.38931 -87.20972 36988 ft 534 kts 96°
2026-05-05 01:17 32.37200 -87.12510 36994 ft 534 kts 96°
2026-05-05 01:17 32.35440 -87.04015 36997 ft 533 kts 98°
2026-05-05 01:18 32.33205 -86.95599 36997 ft 538 kts 104°
2026-05-05 01:18 32.30283 -86.87433 36998 ft 543 kts 109°
2026-05-05 01:19 32.27096 -86.79334 36997 ft 543 kts 111°
2026-05-05 01:19 32.23918 -86.71314 36997 ft 542 kts 110°
2026-05-05 01:20 32.20758 -86.63238 37002 ft 542 kts 109°
2026-05-05 01:20 32.17647 -86.55194 37008 ft 540 kts 109°
2026-05-05 01:21 32.14543 -86.47147 37006 ft 541 kts 109°
2026-05-05 01:21 32.11431 -86.39056 37007 ft 540 kts 109°
2026-05-05 01:22 32.08338 -86.31021 37010 ft 540 kts 111°
2026-05-05 01:22 32.05225 -86.23000 37009 ft 539 kts 111°
2026-05-05 01:23 32.02105 -86.14960 37011 ft 541 kts 109°
2026-05-05 01:23 31.98993 -86.06955 37015 ft 536 kts 109°
2026-05-05 01:24 31.95897 -85.99006 37018 ft 539 kts 109°
2026-05-05 01:24 31.92763 -85.90980 37020 ft 540 kts 110°
2026-05-05 01:25 31.89658 -85.83047 37011 ft 538 kts 110°
2026-05-05 01:25 31.86513 -85.75022 37017 ft 538 kts 111°
2026-05-05 01:26 31.83381 -85.67089 37010 ft 540 kts 111°
2026-05-05 01:26 31.80218 -85.59116 37017 ft 538 kts 111°
2026-05-05 01:27 31.77088 -85.51173 37016 ft 540 kts 110°
2026-05-05 01:27 31.73923 -85.43189 37018 ft 538 kts 111°
2026-05-05 01:28 31.70763 -85.35248 37014 ft 537 kts 111°
2026-05-05 01:28 31.67612 -85.27351 37017 ft 535 kts 112°
2026-05-05 01:29 31.64470 -85.19466 37020 ft 536 kts 112°
2026-05-05 01:29 31.61326 -85.11607 37020 ft 535 kts 112°
2026-05-05 01:30 31.58168 -85.03729 37020 ft 534 kts 112°
2026-05-05 01:30 31.55251 -84.95757 37022 ft 539 kts 107°
2026-05-05 01:31 31.52688 -84.87405 37025 ft 548 kts 104°
2026-05-05 01:31 31.50224 -84.78970 37025 ft 552 kts 104°
2026-05-05 01:32 31.47700 -84.70503 37028 ft 549 kts 105°
2026-05-05 01:32 31.45159 -84.62154 37029 ft 550 kts 105°
2026-05-05 01:33 31.42560 -84.53720 37030 ft 548 kts 105°
2026-05-05 01:33 31.39984 -84.45416 37032 ft 547 kts 106°
2026-05-05 01:34 31.37378 -84.37038 37034 ft 549 kts 105°
2026-05-05 01:34 31.34779 -84.28694 37041 ft 545 kts 106°
2026-05-05 01:35 31.32199 -84.20435 37046 ft 546 kts 107°
2026-05-05 01:35 31.29590 -84.12109 37049 ft 543 kts 107°
2026-05-05 01:36 31.27002 -84.03870 37045 ft 544 kts 107°
2026-05-05 01:36 31.24387 -83.95566 37046 ft 544 kts 107°
2026-05-05 01:37 31.21785 -83.87319 37050 ft 542 kts 107°
2026-05-05 01:37 31.19185 -83.79106 37052 ft 543 kts 107°
2026-05-05 01:38 31.16556 -83.70818 37052 ft 543 kts 108°
2026-05-05 01:38 31.13943 -83.62594 37052 ft 539 kts 107°
2026-05-05 01:39 31.11335 -83.54411 37050 ft 541 kts 107°
2026-05-05 01:39 31.08715 -83.46211 37053 ft 540 kts 107°
2026-05-05 01:40 31.06110 -83.38075 37050 ft 540 kts 108°
2026-05-05 01:40 31.03489 -83.29910 37051 ft 539 kts 108°
2026-05-05 01:41 31.00863 -83.21773 37050 ft 536 kts 109°
2026-05-05 01:41 30.98233 -83.13638 37051 ft 537 kts 109°
2026-05-05 01:42 30.95616 -83.05553 37049 ft 536 kts 109°
2026-05-05 01:42 30.92997 -82.97478 37052 ft 534 kts 109°
2026-05-05 01:43 30.90129 -82.89529 37052 ft 537 kts 117°
2026-05-05 01:43 30.88139 -82.85863 37050 ft 535 kts 129°
2026-05-05 01:43 30.85663 -82.82689 37057 ft 531 kts 139°
2026-05-05 01:44 30.80026 -82.77123 37055 ft 529 kts 145°
2026-05-05 01:44 30.74221 -82.71949 37054 ft 527 kts 147°
2026-05-05 01:45 30.68401 -82.66831 37054 ft 526 kts 147°
2026-05-05 01:45 30.62561 -82.61662 37052 ft 528 kts 146°
2026-05-05 01:46 30.56773 -82.56502 37056 ft 525 kts 146°
2026-05-05 01:46 30.50973 -82.51305 37055 ft 525 kts 146°
2026-05-05 01:47 30.45194 -82.46129 37057 ft 527 kts 146°
2026-05-05 01:47 30.39423 -82.40969 37054 ft 526 kts 146°
2026-05-05 01:48 30.33671 -82.35831 37055 ft 525 kts 146°
2026-05-05 01:48 30.27882 -82.30669 37057 ft 523 kts 147°
2026-05-05 01:49 30.21977 -82.25826 37053 ft 513 kts 155°
2026-05-05 01:49 30.18842 -82.24033 36898 ft 497 kts 165°
2026-05-05 01:49 30.15621 -82.22832 36560 ft 482 kts 173°
2026-05-05 01:50 30.12364 -82.21966 36103 ft 474 kts 176°
2026-05-05 01:50 30.09161 -82.21275 35602 ft 468 kts 178°
2026-05-05 01:50 30.05958 -82.20659 35089 ft 464 kts 179°
2026-05-05 01:50 30.02791 -82.20077 34584 ft 461 kts 179°
2026-05-05 01:51 29.99654 -82.19503 34086 ft 458 kts 179°
2026-05-05 01:51 29.96519 -82.18929 33593 ft 454 kts 179°
2026-05-05 01:51 29.93383 -82.18362 33112 ft 452 kts 179°
2026-05-05 01:51 29.90307 -82.17798 32638 ft 449 kts 179°
2026-05-05 01:52 29.87233 -82.17226 32126 ft 447 kts 180°
2026-05-05 01:52 29.84149 -82.16637 31610 ft 445 kts 179°
2026-05-05 01:52 29.81136 -82.16052 31153 ft 441 kts 179°
2026-05-05 01:52 29.78101 -82.15451 30646 ft 439 kts 179°
2026-05-05 01:53 29.75106 -82.14850 30135 ft 436 kts 179°
2026-05-05 01:53 29.72120 -82.14233 29654 ft 433 kts 179°
2026-05-05 01:53 29.69200 -82.13638 29144 ft 429 kts 178°
2026-05-05 01:53 29.66254 -82.13045 28663 ft 426 kts 178°
2026-05-05 01:54 29.63330 -82.12459 28154 ft 423 kts 178°
2026-05-05 01:54 29.60462 -82.11893 27673 ft 419 kts 178°
2026-05-05 01:54 29.57582 -82.11314 27219 ft 416 kts 178°
2026-05-05 01:54 29.54755 -82.10737 26724 ft 412 kts 177°
2026-05-05 01:55 29.51957 -82.10170 26157 ft 411 kts 178°
2026-05-05 01:55 29.49136 -82.09605 25747 ft 406 kts 177°
2026-05-05 01:55 29.46373 -82.09050 25314 ft 401 kts 177°
2026-05-05 01:55 29.43643 -82.08541 24817 ft 399 kts 178°
2026-05-05 01:56 29.40930 -82.08034 24373 ft 395 kts 178°
2026-05-05 01:56 29.38199 -82.07511 23909 ft 391 kts 177°
2026-05-05 01:56 29.35524 -82.06998 23426 ft 389 kts 177°
2026-05-05 01:56 29.32888 -82.06482 22987 ft 387 kts 174°
2026-05-05 01:57 29.30290 -82.05557 22536 ft 391 kts 163°
2026-05-05 01:57 29.27841 -82.04269 22073 ft 392 kts 158°
2026-05-05 01:57 29.25407 -82.02837 21659 ft 388 kts 157°
2026-05-05 01:57 29.23034 -82.01381 21157 ft 388 kts 156°
2026-05-05 01:58 29.20669 -81.99905 20746 ft 384 kts 155°
2026-05-05 01:58 29.18347 -81.98427 20272 ft 382 kts 155°
2026-05-05 01:58 29.16051 -81.96957 19871 ft 379 kts 154°
2026-05-05 01:58 29.13768 -81.95483 19395 ft 377 kts 154°
2026-05-05 01:59 29.11479 -81.94009 18924 ft 374 kts 154°
2026-05-05 01:59 29.09203 -81.92570 18385 ft 374 kts 154°
2026-05-05 01:59 29.07024 -81.91021 18192 ft 365 kts 147°
2026-05-05 01:59 29.05074 -81.89208 17620 ft 369 kts 141°
2026-05-05 02:00 29.03159 -81.87226 17127 ft 368 kts 140°
2026-05-05 02:00 29.01294 -81.85271 16735 ft 363 kts 139°
2026-05-05 02:00 28.99465 -81.83310 16297 ft 360 kts 139°
2026-05-05 02:00 28.97692 -81.81293 15984 ft 354 kts 133°
2026-05-05 02:01 28.96154 -81.79172 15937 ft 344 kts 129°
2026-05-05 02:01 28.94723 -81.77002 15975 ft 340 kts 128°
2026-05-05 02:01 28.93313 -81.74799 15765 ft 343 kts 127°
2026-05-05 02:01 28.91925 -81.72598 15496 ft 340 kts 127°
2026-05-05 02:02 28.90553 -81.70433 15128 ft 337 kts 127°
2026-05-05 02:02 28.89171 -81.68301 14738 ft 335 kts 127°
2026-05-05 02:02 28.87764 -81.66155 14308 ft 334 kts 128°
2026-05-05 02:02 28.86369 -81.64099 13926 ft 331 kts 128°
2026-05-05 02:03 28.84940 -81.62037 13482 ft 331 kts 129°
2026-05-05 02:03 28.83516 -81.59995 13011 ft 330 kts 129°
2026-05-05 02:03 28.82089 -81.57944 12706 ft 325 kts 129°
2026-05-05 02:03 28.80690 -81.55929 12367 ft 322 kts 129°
2026-05-05 02:04 28.79251 -81.53992 11940 ft 320 kts 135°
2026-05-05 02:04 28.77540 -81.52477 11657 ft 311 kts 150°
2026-05-05 02:04 28.75608 -81.51351 11270 ft 308 kts 156°
2026-05-05 02:04 28.73669 -81.50359 10885 ft 307 kts 157°
2026-05-05 02:05 28.71734 -81.49380 10586 ft 302 kts 157°
2026-05-05 02:05 28.69818 -81.48383 10168 ft 303 kts 156°
2026-05-05 02:05 28.67934 -81.47338 9913 ft 297 kts 155°
2026-05-05 02:05 28.66131 -81.46278 9765 ft 288 kts 153°
2026-05-05 02:06 28.64374 -81.45201 9413 ft 288 kts 153°
2026-05-05 02:06 28.62613 -81.44115 8986 ft 290 kts 153°
2026-05-05 02:06 28.60841 -81.43035 8587 ft 290 kts 155°
2026-05-05 02:06 28.58958 -81.42347 8376 ft 277 kts 174°
2026-05-05 02:07 28.57067 -81.42268 8270 ft 265 kts 182°
2026-05-05 02:07 28.55248 -81.42288 8098 ft 259 kts 182°
2026-05-05 02:07 28.53456 -81.42320 7794 ft 258 kts 182°
2026-05-05 02:07 28.51662 -81.42368 7471 ft 258 kts 182°
2026-05-05 02:08 28.49877 -81.42386 7248 ft 254 kts 181°
2026-05-05 02:08 28.48119 -81.42402 6968 ft 252 kts 182°
2026-05-05 02:08 28.46358 -81.42416 6671 ft 252 kts 182°
2026-05-05 02:08 28.44605 -81.42438 6379 ft 251 kts 181°
2026-05-05 02:09 28.42846 -81.42466 6110 ft 249 kts 181°
2026-05-05 02:09 28.41117 -81.42493 5842 ft 248 kts 181°
2026-05-05 02:09 28.39394 -81.42515 5517 ft 249 kts 180°
2026-05-05 02:09 28.37678 -81.42529 5275 ft 246 kts 179°
2026-05-05 02:10 28.35966 -81.42525 5037 ft 243 kts 178°
2026-05-05 02:10 28.34303 -81.42494 4930 ft 234 kts 177°
2026-05-05 02:10 28.32688 -81.42458 4928 ft 227 kts 177°
2026-05-05 02:10 28.31121 -81.42433 4933 ft 228 kts 178°
2026-05-05 02:11 28.29520 -81.42421 4844 ft 230 kts 178°
2026-05-05 02:11 28.27937 -81.42400 4718 ft 225 kts 178°
2026-05-05 02:11 28.26366 -81.42397 4669 ft 226 kts 176°
2026-05-05 02:11 28.24789 -81.42225 4419 ft 226 kts 161°
2026-05-05 02:12 28.23471 -81.41345 4182 ft 221 kts 130°
2026-05-05 02:12 28.22695 -81.38121 3800 ft 212 kts 87°
2026-05-05 02:12 28.22781 -81.36459 3884 ft 210 kts 86°
2026-05-05 02:13 28.22895 -81.34781 3918 ft 215 kts 86°
2026-05-05 02:13 28.23013 -81.33083 3919 ft 215 kts 86°
2026-05-05 02:13 28.23151 -81.31416 3867 ft 216 kts 81°
2026-05-05 02:13 28.23897 -81.29955 3570 ft 222 kts 42°
2026-05-05 02:14 28.25271 -81.29091 3252 ft 227 kts 24°
2026-05-05 02:14 28.26757 -81.28561 3154 ft 217 kts 19°
2026-05-05 02:14 28.28214 -81.28155 2838 ft 212 kts 15°
2026-05-05 02:14 28.29648 -81.28111 2582 ft 199 kts 359°
2026-05-05 02:15 28.30984 -81.28247 2254 ft 189 kts
2026-05-05 02:15 28.32271 -81.28277 1901 ft 179 kts
2026-05-05 02:15 28.33466 -81.28254 1713 ft 161 kts
2026-05-05 02:15 28.34556 -81.28272 1448 ft 153 kts
2026-05-05 02:16 28.35589 -81.28275 1278 ft 145 kts
2026-05-05 02:16 28.36590 -81.28244 1105 ft 141 kts
2026-05-05 02:16 28.37562 -81.28220 924 ft 138 kts
2026-05-05 02:16 28.38515 -81.28225 731 ft 137 kts
2026-05-05 02:17 28.39464 -81.28229 576 ft 134 kts
2026-05-05 02:17 28.40386 -81.28226 394 ft 133 kts
2026-05-05 02:17 28.41313 -81.28233 240 ft 131 kts
2026-05-05 02:17 28.42233 -81.28243 87 ft 130 kts
2026-05-05 02:18 28.42949 -81.28243 87 ft 69 kts
2026-05-05 02:18 28.43277 -81.28248 87 ft 35 kts 360°
2026-05-05 02:18 28.43489 -81.28287 87 ft 28 kts 332°
2026-05-05 02:18 28.43596 -81.28374 87 ft 14 kts 354°
2026-05-05 02:19 28.43624 -81.28375 87 ft 0 kts
2026-05-05 02:19 28.43643 -81.28375 87 ft 8 kts
2026-05-05 02:20 28.43668 -81.28375 87 ft 2 kts 359°
2026-05-05 02:20 28.43692 -81.28376 87 ft 3 kts 359°
2026-05-05 02:20 28.43744 -81.28377 87 ft 13 kts 359°
2026-05-05 02:20 28.43836 -81.28379 87 ft 12 kts 349°
2026-05-05 02:21 28.43875 -81.28490 87 ft 20 kts 270°
2026-05-05 02:21 28.43874 -81.28612 87 ft 8 kts 270°
2026-05-05 02:21 28.43873 -81.28682 87 ft 10 kts 270°
2026-05-05 02:21 28.43873 -81.28750 87 ft 8 kts 270°
2026-05-05 02:22 28.43872 -81.28847 87 ft 12 kts 269°
2026-05-05 02:22 28.43870 -81.28967 87 ft 16 kts 269°
2026-05-05 02:22 28.43869 -81.29083 87 ft 13 kts 270°
2026-05-05 02:22 28.43869 -81.29180 87 ft 12 kts 270°
2026-05-05 02:23 28.43838 -81.29255 87 ft 13 kts 205°
2026-05-05 02:23 28.43727 -81.29263 88 ft 14 kts 179°
2026-05-05 02:23 28.43634 -81.29260 88 ft 11 kts 180°
2026-05-05 02:23 28.43559 -81.29292 90 ft 12 kts 242°
2026-05-05 02:24 28.43551 -81.29369 90 ft 4 kts 271°
2026-05-05 02:24 28.43551 -81.29396 90 ft 2 kts 271°
2026-05-05 02:24 28.43551 -81.29412 90 ft 3 kts 271°
2026-05-05 02:24 28.43552 -81.29471 90 ft 5 kts 270°
2026-05-05 02:25 28.43552 -81.29477 90 ft 3 kts 270°
2026-05-05 02:25 28.43551 -81.29560 90 ft 14 kts 269°
2026-05-05 02:25 28.43549 -81.29693 90 ft 15 kts 269°
2026-05-05 02:25 28.43571 -81.29796 90 ft 12 kts 329°
2026-05-05 02:26 28.43676 -81.29807 90 ft 17 kts 358°
2026-05-05 02:26 28.43788 -81.29841 90 ft 15 kts 331°
2026-05-05 02:26 28.43875 -81.29945 90 ft 21 kts 296°
2026-05-05 02:26 28.43901 -81.30100 90 ft 18 kts 273°
2026-05-05 02:27 28.43907 -81.30228 90 ft 14 kts 273°
2026-05-05 02:27 28.43911 -81.30332 90 ft 13 kts 272°
2026-05-05 02:27 28.43916 -81.30443 89 ft 13 kts 272°
2026-05-05 02:27 28.43923 -81.30563 88 ft 18 kts 275°
2026-05-05 02:28 28.43932 -81.30699 87 ft 16 kts 274°
2026-05-05 02:28 28.43939 -81.30815 87 ft 14 kts 273°
2026-05-05 02:28 28.43943 -81.30940 87 ft 15 kts 270°
2026-05-05 02:28 28.43942 -81.31050 88 ft 13 kts 268°
2026-05-05 02:29 28.43937 -81.31177 88 ft 16 kts 267°
2026-05-05 02:29 28.43931 -81.31293 90 ft 12 kts 267°
2026-05-05 02:29 28.43927 -81.31392 90 ft 12 kts 267°
2026-05-05 02:29 28.43868 -81.31462 90 ft 17 kts 211°
2026-05-05 02:30 28.43845 -81.31591 90 ft 16 kts 275°
2026-05-05 02:30 28.43773 -81.31644 90 ft 18 kts 149°
2026-05-05 02:30 28.43610 -81.31638 88 ft 27 kts 193°
2026-05-05 02:30 28.43464 -81.31671 87 ft 16 kts 190°
2026-05-05 02:31 28.43374 -81.31690 87 ft 10 kts 191°
2026-05-05 02:31 28.43315 -81.31695 87 ft 6 kts 143°
2026-05-05 02:31 28.43311 -81.31662 87 ft 3 kts 43°
2026-05-05 02:31 28.43328 -81.31643 87 ft 2 kts 53°
2026-05-05 02:32 28.43336 -81.31631 87 ft 1 kts 54°
2026-05-05 02:32 28.43341 -81.31623 87 ft 0 kts 54°
2026-05-05 02:32 28.43343 -81.31620 87 ft 0 kts 54°
2026-05-05 02:32 28.43346 -81.31615 87 ft 0 kts 54°
2026-05-05 02:33 28.43349 -81.31610 87 ft 0 kts 54°
2026-05-05 02:33 28.43350 -81.31609 87 ft 0 kts 54°